Time,TemperatureF,DewpointF,PressureIn,WindDirection,WindDirectionDegrees,WindSpeedMPH,WindSpeedGustMPH,Humidity,HourlyPrecipIn,Conditions,Clouds,dailyrainin,SoftwareType,DateUTC
2013-11-29 00:02:00,50.9,35.3,-100.00,North,-999,-999.0,-999.0,55,-99.99,,---,-99.99,VWS V14.01,2013-11-29 08:02:00,
2013-11-29 00:11:00,50.7,35.2,-100.00,North,-999,-999.0,-999.0,55,-99.99,,---,-99.99,VWS V14.01,2013-11-29 08:11:00,
2013-11-29 00:16:00,50.5,35.0,-100.00,North,-999,-999.0,-999.0,55,-99.99,,---,-99.99,VWS V14.01,2013-11-29 08:16:00,
2013-11-29 00:21:00,50.4,34.8,-100.00,North,-999,-999.0,-999.0,55,-99.99,,---,-99.99,VWS V14.01,2013-11-29 08:21:00,
2013-11-29 00:26:00,50.2,34.7,-100.00,North,-999,-999.0,-999.0,55,-99.99,,---,-99.99,VWS V14.01,2013-11-29 08:26:00,
2013-11-29 00:31:00,50.2,34.7,-100.00,North,-999,-999.0,-999.0,55,-99.99,,---,-99.99,VWS V14.01,2013-11-29 08:31:00,
2013-11-29 00:36:00,50.2,35.1,-100.00,North,-999,-999.0,-999.0,56,-99.99,,---,-99.99,VWS V14.01,2013-11-29 08:36:00,
2013-11-29 00:41:00,50.0,34.5,-100.00,North,-999,-999.0,-999.0,55,-99.99,,---,-99.99,VWS V14.01,2013-11-29 08:41:00,
2013-11-29 00:46:00,49.8,34.8,-100.00,North,-999,-999.0,-999.0,56,-99.99,,---,-99.99,VWS V14.01,2013-11-29 08:46:00,
2013-11-29 00:51:00,49.6,34.6,-100.00,North,-999,-999.0,-999.0,56,-99.99,,---,-99.99,VWS V14.01,2013-11-29 08:51:00,
2013-11-29 00:56:00,49.6,34.6,-100.00,North,-999,-999.0,-999.0,56,-99.99,,---,-99.99,VWS V14.01,2013-11-29 08:56:00,
2013-11-29 01:01:00,49.6,34.6,-100.00,North,-999,-999.0,-999.0,56,-99.99,,---,-99.99,VWS V14.01,2013-11-29 09:01:00,
2013-11-29 01:11:00,49.3,34.3,-100.00,North,-999,-999.0,-999.0,56,-99.99,,---,-99.99,VWS V14.01,2013-11-29 09:11:00,
2013-11-29 01:16:00,49.1,34.1,-100.00,North,-999,-999.0,-999.0,56,-99.99,,---,-99.99,VWS V14.01,2013-11-29 09:16:00,
2013-11-29 01:21:00,49.1,34.1,-100.00,North,-999,-999.0,-999.0,56,-99.99,,---,-99.99,VWS V14.01,2013-11-29 09:21:00,
2013-11-29 01:26:00,48.9,33.9,-100.00,North,-999,-999.0,-999.0,56,-99.99,,---,-99.99,VWS V14.01,2013-11-29 09:26:00,
2013-11-29 01:31:00,48.7,34.2,-100.00,North,-999,-999.0,-999.0,57,-99.99,,---,-99.99,VWS V14.01,2013-11-29 09:31:00,
2013-11-29 01:36:00,48.7,34.2,-100.00,North,-999,-999.0,-999.0,57,-99.99,,---,-99.99,VWS V14.01,2013-11-29 09:36:00,
2013-11-29 01:42:00,48.7,34.2,-100.00,North,-999,-999.0,-999.0,57,-99.99,,---,-99.99,VWS V14.01,2013-11-29 09:42:00,
2013-11-29 01:47:00,48.7,34.2,-100.00,North,-999,-999.0,-999.0,57,-99.99,,---,-99.99,VWS V14.01,2013-11-29 09:47:00,
2013-11-29 01:52:00,48.7,34.2,-100.00,North,-999,-999.0,-999.0,57,-99.99,,---,-99.99,VWS V14.01,2013-11-29 09:52:00,
2013-11-29 01:57:00,48.7,34.2,-100.00,North,-999,-999.0,-999.0,57,-99.99,,---,-99.99,VWS V14.01,2013-11-29 09:57:00,
2013-11-29 02:02:00,48.7,34.2,-100.00,North,-999,-999.0,-999.0,57,-99.99,,---,-99.99,VWS V14.01,2013-11-29 10:02:00,
2013-11-29 02:27:00,48.6,34.5,-100.00,North,-999,-999.0,-999.0,58,-99.99,,---,-99.99,VWS V14.01,2013-11-29 10:27:00,
2013-11-29 02:32:00,48.6,34.5,-100.00,North,-999,-999.0,-999.0,58,-99.99,,---,-99.99,VWS V14.01,2013-11-29 10:32:00,
2013-11-29 02:37:00,48.4,34.3,-100.00,North,-999,-999.0,-999.0,58,-99.99,,---,-99.99,VWS V14.01,2013-11-29 10:37:00,
2013-11-29 02:42:00,48.2,34.1,-100.00,North,-999,-999.0,-999.0,58,-99.99,,---,-99.99,VWS V14.01,2013-11-29 10:42:00,
2013-11-29 02:47:00,48.2,34.1,-100.00,North,-999,-999.0,-999.0,58,-99.99,,---,-99.99,VWS V14.01,2013-11-29 10:47:00,
2013-11-29 02:52:00,48.2,34.1,-100.00,North,-999,-999.0,-999.0,58,-99.99,,---,-99.99,VWS V14.01,2013-11-29 10:52:00,
2013-11-29 02:57:00,48.0,34.0,-100.00,North,-999,-999.0,-999.0,58,-99.99,,---,-99.99,VWS V14.01,2013-11-29 10:57:00,
2013-11-29 03:02:00,47.8,33.8,-100.00,North,-999,-999.0,-999.0,58,-99.99,,---,-99.99,VWS V14.01,2013-11-29 11:02:00,
2013-11-29 03:07:00,47.7,33.6,-100.00,North,-999,-999.0,-999.0,58,-99.99,,---,-99.99,VWS V14.01,2013-11-29 11:07:00,
2013-11-29 03:12:00,47.7,33.6,-100.00,North,-999,-999.0,-999.0,58,-99.99,,---,-99.99,VWS V14.01,2013-11-29 11:12:00,
2013-11-29 03:17:00,47.7,33.6,-100.00,North,-999,-999.0,-999.0,58,-99.99,,---,-99.99,VWS V14.01,2013-11-29 11:17:00,
2013-11-29 03:22:00,47.7,33.6,-100.00,North,-999,-999.0,-999.0,58,-99.99,,---,-99.99,VWS V14.01,2013-11-29 11:22:00,
2013-11-29 03:27:00,47.5,33.5,-100.00,North,-999,-999.0,-999.0,58,-99.99,,---,-99.99,VWS V14.01,2013-11-29 11:27:00,
2013-11-29 03:32:00,47.5,33.5,-100.00,North,-999,-999.0,-999.0,58,-99.99,,---,-99.99,VWS V14.01,2013-11-29 11:32:00,
2013-11-29 03:37:00,47.3,33.7,-100.00,North,-999,-999.0,-999.0,59,-99.99,,---,-99.99,VWS V14.01,2013-11-29 11:37:00,
2013-11-29 03:42:00,47.3,33.7,-100.00,North,-999,-999.0,-999.0,59,-99.99,,---,-99.99,VWS V14.01,2013-11-29 11:42:00,
2013-11-29 03:47:00,47.3,33.7,-100.00,North,-999,-999.0,-999.0,59,-99.99,,---,-99.99,VWS V14.01,2013-11-29 11:47:00,
2013-11-29 03:52:00,47.3,33.7,-100.00,North,-999,-999.0,-999.0,59,-99.99,,---,-99.99,VWS V14.01,2013-11-29 11:52:00,
2013-11-29 03:57:00,47.1,33.5,-100.00,North,-999,-999.0,-999.0,59,-99.99,,---,-99.99,VWS V14.01,2013-11-29 11:57:00,
2013-11-29 04:02:00,47.1,33.5,-100.00,North,-999,-999.0,-999.0,59,-99.99,,---,-99.99,VWS V14.01,2013-11-29 12:02:00,
2013-11-29 04:07:00,47.1,33.5,-100.00,North,-999,-999.0,-999.0,59,-99.99,,---,-99.99,VWS V14.01,2013-11-29 12:07:00,
2013-11-29 04:12:00,47.1,33.5,-100.00,North,-999,-999.0,-999.0,59,-99.99,,---,-99.99,VWS V14.01,2013-11-29 12:12:00,
2013-11-29 04:17:00,46.9,33.4,-100.00,North,-999,-999.0,-999.0,59,-99.99,,---,-99.99,VWS V14.01,2013-11-29 12:17:00,
2013-11-29 04:22:00,46.9,33.4,-100.00,North,-999,-999.0,-999.0,59,-99.99,,---,-99.99,VWS V14.01,2013-11-29 12:22:00,
2013-11-29 04:27:00,46.9,33.4,-100.00,North,-999,-999.0,-999.0,59,-99.99,,---,-99.99,VWS V14.01,2013-11-29 12:27:00,
2013-11-29 04:32:00,46.8,33.2,-100.00,North,-999,-999.0,-999.0,59,-99.99,,---,-99.99,VWS V14.01,2013-11-29 12:32:00,
2013-11-29 04:37:00,46.6,33.0,-100.00,North,-999,-999.0,-999.0,59,-99.99,,---,-99.99,VWS V14.01,2013-11-29 12:37:00,
2013-11-29 04:42:00,46.6,33.0,-100.00,North,-999,-999.0,-999.0,59,-99.99,,---,-99.99,VWS V14.01,2013-11-29 12:42:00,
2013-11-29 04:47:00,46.4,32.9,-100.00,North,-999,-999.0,-999.0,59,-99.99,,---,-99.99,VWS V14.01,2013-11-29 12:47:00,
2013-11-29 04:52:00,46.2,33.1,-100.00,North,-999,-999.0,-999.0,60,-99.99,,---,-99.99,VWS V14.01,2013-11-29 12:52:00,
2013-11-29 04:57:00,46.2,33.1,-100.00,North,-999,-999.0,-999.0,60,-99.99,,---,-99.99,VWS V14.01,2013-11-29 12:57:00,
2013-11-29 05:02:00,46.2,33.1,-100.00,North,-999,-999.0,-999.0,60,-99.99,,---,-99.99,VWS V14.01,2013-11-29 13:02:00,
2013-11-29 05:07:00,46.2,33.1,-100.00,North,-999,-999.0,-999.0,60,-99.99,,---,-99.99,VWS V14.01,2013-11-29 13:07:00,
2013-11-29 05:12:00,46.2,33.1,-100.00,North,-999,-999.0,-999.0,60,-99.99,,---,-99.99,VWS V14.01,2013-11-29 13:12:00,
2013-11-29 05:17:00,46.0,33.0,-100.00,North,-999,-999.0,-999.0,60,-99.99,,---,-99.99,VWS V14.01,2013-11-29 13:17:00,
2013-11-29 05:22:00,46.0,33.0,-100.00,North,-999,-999.0,-999.0,60,-99.99,,---,-99.99,VWS V14.01,2013-11-29 13:22:00,
2013-11-29 05:27:00,45.9,32.8,-100.00,North,-999,-999.0,-999.0,60,-99.99,,---,-99.99,VWS V14.01,2013-11-29 13:27:00,
2013-11-29 05:32:00,45.9,32.8,-100.00,North,-999,-999.0,-999.0,60,-99.99,,---,-99.99,VWS V14.01,2013-11-29 13:32:00,
2013-11-29 05:37:00,45.5,32.4,-100.00,North,-999,-999.0,-999.0,60,-99.99,,---,-99.99,VWS V14.01,2013-11-29 13:37:00,
2013-11-29 05:42:00,45.5,32.4,-100.00,North,-999,-999.0,-999.0,60,-99.99,,---,-99.99,VWS V14.01,2013-11-29 13:42:00,
2013-11-29 05:47:00,45.5,32.4,-100.00,North,-999,-999.0,-999.0,60,-99.99,,---,-99.99,VWS V14.01,2013-11-29 13:47:00,
2013-11-29 05:52:00,45.5,32.8,-100.00,North,-999,-999.0,-999.0,61,-99.99,,---,-99.99,VWS V14.01,2013-11-29 13:52:00,
2013-11-29 05:57:00,45.5,32.8,-100.00,North,-999,-999.0,-999.0,61,-99.99,,---,-99.99,VWS V14.01,2013-11-29 13:57:00,
2013-11-29 06:02:00,45.3,32.7,-100.00,North,-999,-999.0,-999.0,61,-99.99,,---,-99.99,VWS V14.01,2013-11-29 14:02:00,
2013-11-29 06:07:00,45.3,32.7,-100.00,North,-999,-999.0,-999.0,61,-99.99,,---,-99.99,VWS V14.01,2013-11-29 14:07:00,
2013-11-29 06:12:00,45.3,32.7,-100.00,North,-999,-999.0,-999.0,61,-99.99,,---,-99.99,VWS V14.01,2013-11-29 14:12:00,
2013-11-29 06:17:00,45.3,32.7,-100.00,North,-999,-999.0,-999.0,61,-99.99,,---,-99.99,VWS V14.01,2013-11-29 14:17:00,
2013-11-29 06:22:00,45.5,32.8,-100.00,North,-999,-999.0,-999.0,61,-99.99,,---,-99.99,VWS V14.01,2013-11-29 14:22:00,
2013-11-29 06:27:00,45.3,32.7,-100.00,North,-999,-999.0,-999.0,61,-99.99,,---,-99.99,VWS V14.01,2013-11-29 14:27:00,
2013-11-29 06:32:00,45.1,32.5,-100.00,North,-999,-999.0,-999.0,61,-99.99,,---,-99.99,VWS V14.01,2013-11-29 14:32:00,
2013-11-29 06:37:00,45.1,32.5,-100.00,North,-999,-999.0,-999.0,61,-99.99,,---,-99.99,VWS V14.01,2013-11-29 14:37:00,
2013-11-29 06:42:00,45.0,32.3,-100.00,North,-999,-999.0,-999.0,61,-99.99,,---,-99.99,VWS V14.01,2013-11-29 14:42:00,
2013-11-29 06:47:00,45.0,32.7,-100.00,North,-999,-999.0,-999.0,62,-99.99,,---,-99.99,VWS V14.01,2013-11-29 14:47:00,
2013-11-29 06:52:00,45.0,32.7,-100.00,North,-999,-999.0,-999.0,62,-99.99,,---,-99.99,VWS V14.01,2013-11-29 14:52:00,
2013-11-29 06:57:00,44.8,32.6,-100.00,North,-999,-999.0,-999.0,62,-99.99,,---,-99.99,VWS V14.01,2013-11-29 14:57:00,
2013-11-29 07:02:00,44.8,32.6,-100.00,North,-999,-999.0,-999.0,62,-99.99,,---,-99.99,VWS V14.01,2013-11-29 15:02:00,
2013-11-29 07:07:00,44.6,32.4,-100.00,North,-999,-999.0,-999.0,62,-99.99,,---,-99.99,VWS V14.01,2013-11-29 15:07:00,
2013-11-29 07:12:00,44.6,32.4,-100.00,North,-999,-999.0,-999.0,62,-99.99,,---,-99.99,VWS V14.01,2013-11-29 15:12:00,
2013-11-29 07:17:00,44.4,32.2,-100.00,North,-999,-999.0,-999.0,62,-99.99,,---,-99.99,VWS V14.01,2013-11-29 15:17:00,
2013-11-29 07:22:00,44.4,32.2,-100.00,North,-999,-999.0,-999.0,62,-99.99,,---,-99.99,VWS V14.01,2013-11-29 15:22:00,
2013-11-29 07:27:00,44.4,32.2,-100.00,North,-999,-999.0,-999.0,62,-99.99,,---,-99.99,VWS V14.01,2013-11-29 15:27:00,
2013-11-29 07:32:00,44.4,32.2,-100.00,North,-999,-999.0,-999.0,62,-99.99,,---,-99.99,VWS V14.01,2013-11-29 15:32:00,
2013-11-29 07:37:00,44.4,32.2,-100.00,North,-999,-999.0,-999.0,62,-99.99,,---,-99.99,VWS V14.01,2013-11-29 15:37:00,
2013-11-29 07:42:00,44.8,32.6,-100.00,North,-999,-999.0,-999.0,62,-99.99,,---,-99.99,VWS V14.01,2013-11-29 15:42:00,
2013-11-29 07:47:00,45.0,32.7,-100.00,North,-999,-999.0,-999.0,62,-99.99,,---,-99.99,VWS V14.01,2013-11-29 15:47:00,
2013-11-29 07:52:00,45.3,33.1,-100.00,North,-999,-999.0,-999.0,62,-99.99,,---,-99.99,VWS V14.01,2013-11-29 15:52:00,
2013-11-29 07:57:00,45.7,33.4,-100.00,North,-999,-999.0,-999.0,62,-99.99,,---,-99.99,VWS V14.01,2013-11-29 15:57:00,
2013-11-29 08:02:00,45.9,33.6,-100.00,North,-999,-999.0,-999.0,62,-99.99,,---,-99.99,VWS V14.01,2013-11-29 16:02:00,
2013-11-29 08:12:00,46.6,34.3,-100.00,North,-999,-999.0,-999.0,62,-99.99,,---,-99.99,VWS V14.01,2013-11-29 16:12:00,
2013-11-29 08:17:00,47.1,34.8,-100.00,North,-999,-999.0,-999.0,62,-99.99,,---,-99.99,VWS V14.01,2013-11-29 16:17:00,
2013-11-29 08:22:00,47.3,35.0,-100.00,North,-999,-999.0,-999.0,62,-99.99,,---,-99.99,VWS V14.01,2013-11-29 16:22:00,
2013-11-29 08:27:00,47.7,35.7,-100.00,North,-999,-999.0,-999.0,63,-99.99,,---,-99.99,VWS V14.01,2013-11-29 16:27:00,
2013-11-29 08:32:00,48.0,35.6,-100.00,North,-999,-999.0,-999.0,62,-99.99,,---,-99.99,VWS V14.01,2013-11-29 16:32:00,
2013-11-29 08:37:00,48.2,35.8,-100.00,North,-999,-999.0,-999.0,62,-99.99,,---,-99.99,VWS V14.01,2013-11-29 16:37:00,
2013-11-29 08:42:00,48.7,36.3,-100.00,North,-999,-999.0,-999.0,62,-99.99,,---,-99.99,VWS V14.01,2013-11-29 16:42:00,
2013-11-29 08:47:00,49.1,37.1,-100.00,North,-999,-999.0,-999.0,63,-99.99,,---,-99.99,VWS V14.01,2013-11-29 16:47:00,
2013-11-29 08:52:00,49.5,37.4,-100.00,North,-999,-999.0,-999.0,63,-99.99,,---,-99.99,VWS V14.01,2013-11-29 16:52:00,
2013-11-29 08:57:00,50.0,37.5,-100.00,North,-999,-999.0,-999.0,62,-99.99,,---,-99.99,VWS V14.01,2013-11-29 16:57:00,
2013-11-29 09:02:00,50.5,38.0,-100.00,North,-999,-999.0,-999.0,62,-99.99,,---,-99.99,VWS V14.01,2013-11-29 17:02:00,
2013-11-29 09:07:00,51.1,38.5,-100.00,North,-999,-999.0,-999.0,62,-99.99,,---,-99.99,VWS V14.01,2013-11-29 17:07:00,
2013-11-29 09:12:00,51.6,39.0,-100.00,North,-999,-999.0,-999.0,62,-99.99,,---,-99.99,VWS V14.01,2013-11-29 17:12:00,
2013-11-29 09:17:00,52.0,39.0,-100.00,North,-999,-999.0,-999.0,61,-99.99,,---,-99.99,VWS V14.01,2013-11-29 17:17:00,
2013-11-29 09:22:00,52.7,39.6,-100.00,North,-999,-999.0,-999.0,61,-99.99,,---,-99.99,VWS V14.01,2013-11-29 17:22:00,
2013-11-29 09:27:00,53.1,40.0,-100.00,North,-999,-999.0,-999.0,61,-99.99,,---,-99.99,VWS V14.01,2013-11-29 17:27:00,
2013-11-29 09:32:00,53.6,40.5,-100.00,North,-999,-999.0,-999.0,61,-99.99,,---,-99.99,VWS V14.01,2013-11-29 17:32:00,
2013-11-29 09:37:00,54.3,41.2,-100.00,North,-999,-999.0,-999.0,61,-99.99,,---,-99.99,VWS V14.01,2013-11-29 17:37:00,
2013-11-29 09:42:00,54.7,41.5,-100.00,North,-999,-999.0,-999.0,61,-99.99,,---,-99.99,VWS V14.01,2013-11-29 17:42:00,
2013-11-29 09:47:00,55.2,42.0,-100.00,North,-999,-999.0,-999.0,61,-99.99,,---,-99.99,VWS V14.01,2013-11-29 17:47:00,
2013-11-29 09:52:00,55.9,42.3,-100.00,North,-999,-999.0,-999.0,60,-99.99,,---,-99.99,VWS V14.01,2013-11-29 17:52:00,
2013-11-29 09:57:00,56.3,42.6,-100.00,North,-999,-999.0,-999.0,60,-99.99,,---,-99.99,VWS V14.01,2013-11-29 17:57:00,
2013-11-29 10:02:00,56.8,43.1,-100.00,North,-999,-999.0,-999.0,60,-99.99,,---,-99.99,VWS V14.01,2013-11-29 18:02:00,
2013-11-29 10:07:00,57.2,43.5,-100.00,North,-999,-999.0,-999.0,60,-99.99,,---,-99.99,VWS V14.01,2013-11-29 18:07:00,
2013-11-29 10:12:00,57.7,43.5,-100.00,North,-999,-999.0,-999.0,59,-99.99,,---,-99.99,VWS V14.01,2013-11-29 18:12:00,
2013-11-29 10:17:00,58.3,44.0,-100.00,North,-999,-999.0,-999.0,59,-99.99,,---,-99.99,VWS V14.01,2013-11-29 18:17:00,
2013-11-29 10:22:00,58.6,44.4,-100.00,North,-999,-999.0,-999.0,59,-99.99,,---,-99.99,VWS V14.01,2013-11-29 18:22:00,
2013-11-29 10:27:00,59.0,44.3,-100.00,North,-999,-999.0,-999.0,58,-99.99,,---,-99.99,VWS V14.01,2013-11-29 18:27:00,
2013-11-29 10:32:00,59.5,44.8,-100.00,North,-999,-999.0,-999.0,58,-99.99,,---,-99.99,VWS V14.01,2013-11-29 18:32:00,
2013-11-29 10:37:00,60.1,45.3,-100.00,North,-999,-999.0,-999.0,58,-99.99,,---,-99.99,VWS V14.01,2013-11-29 18:37:00,
2013-11-29 10:42:00,60.4,45.2,-100.00,North,-999,-999.0,-999.0,57,-99.99,,---,-99.99,VWS V14.01,2013-11-29 18:42:00,
2013-11-29 10:47:00,60.6,45.3,-100.00,North,-999,-999.0,-999.0,57,-99.99,,---,-99.99,VWS V14.01,2013-11-29 18:47:00,
2013-11-29 10:52:00,61.2,45.4,-100.00,North,-999,-999.0,-999.0,56,-99.99,,---,-99.99,VWS V14.01,2013-11-29 18:52:00,
2013-11-29 10:57:00,61.7,45.9,-100.00,North,-999,-999.0,-999.0,56,-99.99,,---,-99.99,VWS V14.01,2013-11-29 18:57:00,
2013-11-29 11:02:00,62.2,45.9,-100.00,North,-999,-999.0,-999.0,55,-99.99,,---,-99.99,VWS V14.01,2013-11-29 19:02:00,
2013-11-29 11:07:00,62.4,45.6,-100.00,North,-999,-999.0,-999.0,54,-99.99,,---,-99.99,VWS V14.01,2013-11-29 19:07:00,
2013-11-29 11:12:00,62.8,45.4,-100.00,North,-999,-999.0,-999.0,53,-99.99,,---,-99.99,VWS V14.01,2013-11-29 19:12:00,
2013-11-29 11:17:00,63.1,45.8,-100.00,North,-999,-999.0,-999.0,53,-99.99,,---,-99.99,VWS V14.01,2013-11-29 19:17:00,
2013-11-29 11:22:00,63.1,45.2,-100.00,North,-999,-999.0,-999.0,52,-99.99,,---,-99.99,VWS V14.01,2013-11-29 19:22:00,
2013-11-29 11:27:00,63.3,45.4,-100.00,North,-999,-999.0,-999.0,52,-99.99,,---,-99.99,VWS V14.01,2013-11-29 19:27:00,
2013-11-29 11:32:00,63.5,45.6,-100.00,North,-999,-999.0,-999.0,52,-99.99,,---,-99.99,VWS V14.01,2013-11-29 19:32:00,
2013-11-29 11:37:00,63.7,45.8,-100.00,North,-999,-999.0,-999.0,52,-99.99,,---,-99.99,VWS V14.01,2013-11-29 19:37:00,
2013-11-29 11:42:00,64.0,45.6,-100.00,North,-999,-999.0,-999.0,51,-99.99,,---,-99.99,VWS V14.01,2013-11-29 19:42:00,
2013-11-29 11:47:00,64.4,45.9,-100.00,North,-999,-999.0,-999.0,51,-99.99,,---,-99.99,VWS V14.01,2013-11-29 19:47:00,
2013-11-29 11:52:00,64.6,45.5,-100.00,North,-999,-999.0,-999.0,50,-99.99,,---,-99.99,VWS V14.01,2013-11-29 19:52:00,
2013-11-29 11:58:00,64.4,45.4,-100.00,North,-999,-999.0,-999.0,50,-99.99,,---,-99.99,VWS V14.01,2013-11-29 19:58:00,
2013-11-29 12:03:00,64.6,45.5,-100.00,North,-999,-999.0,-999.0,50,-99.99,,---,-99.99,VWS V14.01,2013-11-29 20:03:00,
2013-11-29 12:08:00,64.8,45.7,-100.00,North,-999,-999.0,-999.0,50,-99.99,,---,-99.99,VWS V14.01,2013-11-29 20:08:00,
2013-11-29 12:13:00,64.9,45.3,-100.00,North,-999,-999.0,-999.0,49,-99.99,,---,-99.99,VWS V14.01,2013-11-29 20:13:00,
2013-11-29 12:18:00,64.9,45.3,-100.00,North,-999,-999.0,-999.0,49,-99.99,,---,-99.99,VWS V14.01,2013-11-29 20:18:00,
2013-11-29 12:23:00,65.1,45.5,-100.00,North,-999,-999.0,-999.0,49,-99.99,,---,-99.99,VWS V14.01,2013-11-29 20:23:00,
2013-11-29 12:28:00,65.5,45.3,-100.00,North,-999,-999.0,-999.0,48,-99.99,,---,-99.99,VWS V14.01,2013-11-29 20:28:00,
2013-11-29 12:33:00,65.3,45.1,-100.00,North,-999,-999.0,-999.0,48,-99.99,,---,-99.99,VWS V14.01,2013-11-29 20:33:00,
2013-11-29 12:38:00,65.5,45.3,-100.00,North,-999,-999.0,-999.0,48,-99.99,,---,-99.99,VWS V14.01,2013-11-29 20:38:00,
2013-11-29 12:43:00,65.5,45.3,-100.00,North,-999,-999.0,-999.0,48,-99.99,,---,-99.99,VWS V14.01,2013-11-29 20:43:00,
2013-11-29 12:48:00,65.7,44.9,-100.00,North,-999,-999.0,-999.0,47,-99.99,,---,-99.99,VWS V14.01,2013-11-29 20:48:00,
2013-11-29 12:53:00,66.0,45.2,-100.00,North,-999,-999.0,-999.0,47,-99.99,,---,-99.99,VWS V14.01,2013-11-29 20:53:00,
2013-11-29 12:58:00,66.2,45.4,-100.00,North,-999,-999.0,-999.0,47,-99.99,,---,-99.99,VWS V14.01,2013-11-29 20:58:00,
2013-11-29 13:03:00,66.4,45.6,-100.00,North,-999,-999.0,-999.0,47,-99.99,,---,-99.99,VWS V14.01,2013-11-29 21:03:00,
2013-11-29 13:08:00,66.6,45.2,-100.00,North,-999,-999.0,-999.0,46,-99.99,,---,-99.99,VWS V14.01,2013-11-29 21:08:00,
2013-11-29 13:13:00,66.9,45.5,-100.00,North,-999,-999.0,-999.0,46,-99.99,,---,-99.99,VWS V14.01,2013-11-29 21:13:00,
2013-11-29 13:18:00,67.3,45.8,-100.00,North,-999,-999.0,-999.0,46,-99.99,,---,-99.99,VWS V14.01,2013-11-29 21:18:00,
2013-11-29 13:23:00,67.3,45.8,-100.00,North,-999,-999.0,-999.0,46,-99.99,,---,-99.99,VWS V14.01,2013-11-29 21:23:00,
2013-11-29 13:28:00,67.1,45.7,-100.00,North,-999,-999.0,-999.0,46,-99.99,,---,-99.99,VWS V14.01,2013-11-29 21:28:00,
2013-11-29 13:33:00,66.7,44.8,-100.00,North,-999,-999.0,-999.0,45,-99.99,,---,-99.99,VWS V14.01,2013-11-29 21:33:00,
2013-11-29 13:38:00,66.7,44.8,-100.00,North,-999,-999.0,-999.0,45,-99.99,,---,-99.99,VWS V14.01,2013-11-29 21:38:00,
2013-11-29 13:43:00,66.7,44.8,-100.00,North,-999,-999.0,-999.0,45,-99.99,,---,-99.99,VWS V14.01,2013-11-29 21:43:00,
2013-11-29 13:48:00,67.1,45.1,-100.00,North,-999,-999.0,-999.0,45,-99.99,,---,-99.99,VWS V14.01,2013-11-29 21:48:00,
2013-11-29 13:53:00,67.3,45.2,-100.00,North,-999,-999.0,-999.0,45,-99.99,,---,-99.99,VWS V14.01,2013-11-29 21:53:00,
2013-11-29 13:58:00,67.3,45.2,-100.00,North,-999,-999.0,-999.0,45,-99.99,,---,-99.99,VWS V14.01,2013-11-29 21:58:00,
2013-11-29 14:03:00,67.3,45.2,-100.00,North,-999,-999.0,-999.0,45,-99.99,,---,-99.99,VWS V14.01,2013-11-29 22:03:00,
2013-11-29 14:13:00,67.3,45.2,-100.00,North,-999,-999.0,-999.0,45,-99.99,,---,-99.99,VWS V14.01,2013-11-29 22:13:00,
2013-11-29 14:18:00,67.3,44.7,-100.00,North,-999,-999.0,-999.0,44,-99.99,,---,-99.99,VWS V14.01,2013-11-29 22:18:00,
2013-11-29 14:23:00,67.3,44.7,-100.00,North,-999,-999.0,-999.0,44,-99.99,,---,-99.99,VWS V14.01,2013-11-29 22:23:00,
2013-11-29 14:28:00,67.5,44.8,-100.00,North,-999,-999.0,-999.0,44,-99.99,,---,-99.99,VWS V14.01,2013-11-29 22:28:00,
2013-11-29 14:33:00,67.5,44.8,-100.00,North,-999,-999.0,-999.0,44,-99.99,,---,-99.99,VWS V14.01,2013-11-29 22:33:00,
2013-11-29 14:38:00,67.6,45.0,-100.00,North,-999,-999.0,-999.0,44,-99.99,,---,-99.99,VWS V14.01,2013-11-29 22:38:00,
2013-11-29 14:43:00,67.8,45.1,-100.00,North,-999,-999.0,-999.0,44,-99.99,,---,-99.99,VWS V14.01,2013-11-29 22:43:00,
2013-11-29 14:48:00,67.8,45.1,-100.00,North,-999,-999.0,-999.0,44,-99.99,,---,-99.99,VWS V14.01,2013-11-29 22:48:00,
2013-11-29 14:53:00,68.0,45.3,-100.00,North,-999,-999.0,-999.0,44,-99.99,,---,-99.99,VWS V14.01,2013-11-29 22:53:00,
2013-11-29 14:58:00,68.0,44.7,-100.00,North,-999,-999.0,-999.0,43,-99.99,,---,-99.99,VWS V14.01,2013-11-29 22:58:00,
2013-11-29 15:03:00,68.0,44.7,-100.00,North,-999,-999.0,-999.0,43,-99.99,,---,-99.99,VWS V14.01,2013-11-29 23:03:00,
2013-11-29 15:08:00,68.0,44.7,-100.00,North,-999,-999.0,-999.0,43,-99.99,,---,-99.99,VWS V14.01,2013-11-29 23:08:00,
2013-11-29 15:14:00,68.0,44.7,-100.00,North,-999,-999.0,-999.0,43,-99.99,,---,-99.99,VWS V14.01,2013-11-29 23:14:00,
2013-11-29 15:19:00,68.0,44.7,-100.00,North,-999,-999.0,-999.0,43,-99.99,,---,-99.99,VWS V14.01,2013-11-29 23:19:00,
2013-11-29 15:25:00,68.0,44.7,-100.00,North,-999,-999.0,-999.0,43,-99.99,,---,-99.99,VWS V14.01,2013-11-29 23:25:00,
2013-11-29 15:30:00,68.0,44.7,-100.00,North,-999,-999.0,-999.0,43,-99.99,,---,-99.99,VWS V14.01,2013-11-29 23:30:00,
2013-11-29 15:36:00,67.8,44.5,-100.00,North,-999,-999.0,-999.0,43,-99.99,,---,-99.99,VWS V14.01,2013-11-29 23:36:00,
2013-11-29 15:41:00,67.8,44.5,-100.00,North,-999,-999.0,-999.0,43,-99.99,,---,-99.99,VWS V14.01,2013-11-29 23:41:00,
2013-11-29 15:46:00,67.6,44.4,-100.00,North,-999,-999.0,-999.0,43,-99.99,,---,-99.99,VWS V14.01,2013-11-29 23:46:00,
2013-11-29 15:53:00,67.5,44.2,-100.00,North,-999,-999.0,-999.0,43,-99.99,,---,-99.99,VWS V14.01,2013-11-29 23:53:00,
2013-11-29 15:58:00,67.1,43.9,-100.00,North,-999,-999.0,-999.0,43,-99.99,,---,-99.99,VWS V14.01,2013-11-29 23:58:00,
2013-11-29 16:03:00,66.9,43.7,-100.00,North,-999,-999.0,-999.0,43,-99.99,,---,-99.99,VWS V14.01,2013-11-30 00:03:00,
2013-11-29 16:08:00,66.7,43.5,-100.00,North,-999,-999.0,-999.0,43,-99.99,,---,-99.99,VWS V14.01,2013-11-30 00:08:00,
2013-11-29 16:13:00,66.6,43.4,-100.00,North,-999,-999.0,-999.0,43,-99.99,,---,-99.99,VWS V14.01,2013-11-30 00:13:00,
2013-11-29 16:18:00,66.4,43.2,-100.00,North,-999,-999.0,-999.0,43,-99.99,,---,-99.99,VWS V14.01,2013-11-30 00:18:00,
2013-11-29 16:23:00,66.4,43.2,-100.00,North,-999,-999.0,-999.0,43,-99.99,,---,-99.99,VWS V14.01,2013-11-30 00:23:00,
2013-11-29 16:28:00,66.0,43.5,-100.00,North,-999,-999.0,-999.0,44,-99.99,,---,-99.99,VWS V14.01,2013-11-30 00:28:00,
2013-11-29 16:33:00,66.0,43.5,-100.00,North,-999,-999.0,-999.0,44,-99.99,,---,-99.99,VWS V14.01,2013-11-30 00:33:00,
2013-11-29 16:38:00,65.8,43.3,-100.00,North,-999,-999.0,-999.0,44,-99.99,,---,-99.99,VWS V14.01,2013-11-30 00:38:00,
2013-11-29 16:43:00,65.7,43.2,-100.00,North,-999,-999.0,-999.0,44,-99.99,,---,-99.99,VWS V14.01,2013-11-30 00:43:00,
2013-11-29 16:48:00,65.5,43.0,-100.00,North,-999,-999.0,-999.0,44,-99.99,,---,-99.99,VWS V14.01,2013-11-30 00:48:00,
2013-11-29 16:53:00,65.1,42.7,-100.00,North,-999,-999.0,-999.0,44,-99.99,,---,-99.99,VWS V14.01,2013-11-30 00:53:00,
2013-11-29 16:58:00,64.9,42.5,-100.00,North,-999,-999.0,-999.0,44,-99.99,,---,-99.99,VWS V14.01,2013-11-30 00:58:00,
2013-11-29 17:03:00,64.8,42.4,-100.00,North,-999,-999.0,-999.0,44,-99.99,,---,-99.99,VWS V14.01,2013-11-30 01:03:00,
2013-11-29 17:08:00,64.6,42.2,-100.00,North,-999,-999.0,-999.0,44,-99.99,,---,-99.99,VWS V14.01,2013-11-30 01:08:00,
2013-11-29 17:13:00,64.4,42.6,-100.00,North,-999,-999.0,-999.0,45,-99.99,,---,-99.99,VWS V14.01,2013-11-30 01:13:00,
2013-11-29 17:18:00,64.2,42.5,-100.00,North,-999,-999.0,-999.0,45,-99.99,,---,-99.99,VWS V14.01,2013-11-30 01:18:00,
2013-11-29 17:23:00,64.0,42.3,-100.00,North,-999,-999.0,-999.0,45,-99.99,,---,-99.99,VWS V14.01,2013-11-30 01:23:00,
2013-11-29 17:28:00,63.9,42.1,-100.00,North,-999,-999.0,-999.0,45,-99.99,,---,-99.99,VWS V14.01,2013-11-30 01:28:00,
2013-11-29 17:33:00,63.7,42.0,-100.00,North,-999,-999.0,-999.0,45,-99.99,,---,-99.99,VWS V14.01,2013-11-30 01:33:00,
2013-11-29 17:38:00,63.5,41.8,-100.00,North,-999,-999.0,-999.0,45,-99.99,,---,-99.99,VWS V14.01,2013-11-30 01:38:00,
2013-11-29 17:43:00,63.3,41.6,-100.00,North,-999,-999.0,-999.0,45,-99.99,,---,-99.99,VWS V14.01,2013-11-30 01:43:00,
2013-11-29 17:48:00,63.1,41.5,-100.00,North,-999,-999.0,-999.0,45,-99.99,,---,-99.99,VWS V14.01,2013-11-30 01:48:00,
2013-11-29 17:53:00,63.0,41.3,-100.00,North,-999,-999.0,-999.0,45,-99.99,,---,-99.99,VWS V14.01,2013-11-30 01:53:00,
2013-11-29 17:58:00,62.6,41.0,-100.00,North,-999,-999.0,-999.0,45,-99.99,,---,-99.99,VWS V14.01,2013-11-30 01:58:00,
2013-11-29 18:03:00,62.2,41.2,-100.00,North,-999,-999.0,-999.0,46,-99.99,,---,-99.99,VWS V14.01,2013-11-30 02:03:00,
2013-11-29 18:08:00,62.1,41.1,-100.00,North,-999,-999.0,-999.0,46,-99.99,,---,-99.99,VWS V14.01,2013-11-30 02:08:00,
2013-11-29 18:13:00,61.9,40.9,-100.00,North,-999,-999.0,-999.0,46,-99.99,,---,-99.99,VWS V14.01,2013-11-30 02:13:00,
2013-11-29 18:18:00,61.9,40.9,-100.00,North,-999,-999.0,-999.0,46,-99.99,,---,-99.99,VWS V14.01,2013-11-30 02:18:00,
2013-11-29 18:23:00,61.5,40.6,-100.00,North,-999,-999.0,-999.0,46,-99.99,,---,-99.99,VWS V14.01,2013-11-30 02:23:00,
2013-11-29 18:28:00,61.3,40.4,-100.00,North,-999,-999.0,-999.0,46,-99.99,,---,-99.99,VWS V14.01,2013-11-30 02:28:00,
2013-11-29 18:33:00,61.2,40.2,-100.00,North,-999,-999.0,-999.0,46,-99.99,,---,-99.99,VWS V14.01,2013-11-30 02:33:00,
2013-11-29 18:38:00,61.2,40.2,-100.00,North,-999,-999.0,-999.0,46,-99.99,,---,-99.99,VWS V14.01,2013-11-30 02:38:00,
2013-11-29 18:43:00,61.0,40.1,-100.00,North,-999,-999.0,-999.0,46,-99.99,,---,-99.99,VWS V14.01,2013-11-30 02:43:00,
2013-11-29 18:48:00,60.6,40.3,-100.00,North,-999,-999.0,-999.0,47,-99.99,,---,-99.99,VWS V14.01,2013-11-30 02:48:00,
2013-11-29 18:53:00,60.6,40.3,-100.00,North,-999,-999.0,-999.0,47,-99.99,,---,-99.99,VWS V14.01,2013-11-30 02:53:00,
2013-11-29 18:58:00,60.4,40.1,-100.00,North,-999,-999.0,-999.0,47,-99.99,,---,-99.99,VWS V14.01,2013-11-30 02:58:00,
2013-11-29 19:03:00,60.1,39.8,-100.00,North,-999,-999.0,-999.0,47,-99.99,,---,-99.99,VWS V14.01,2013-11-30 03:03:00,
2013-11-29 19:08:00,59.9,39.6,-100.00,North,-999,-999.0,-999.0,47,-99.99,,---,-99.99,VWS V14.01,2013-11-30 03:08:00,
2013-11-29 19:13:00,59.5,39.3,-100.00,North,-999,-999.0,-999.0,47,-99.99,,---,-99.99,VWS V14.01,2013-11-30 03:13:00,
2013-11-29 19:18:00,59.4,39.2,-100.00,North,-999,-999.0,-999.0,47,-99.99,,---,-99.99,VWS V14.01,2013-11-30 03:18:00,
2013-11-29 19:23:00,59.4,39.2,-100.00,North,-999,-999.0,-999.0,47,-99.99,,---,-99.99,VWS V14.01,2013-11-30 03:23:00,
2013-11-29 19:28:00,59.2,39.0,-100.00,North,-999,-999.0,-999.0,47,-99.99,,---,-99.99,VWS V14.01,2013-11-30 03:28:00,
2013-11-29 19:33:00,58.8,39.2,-100.00,North,-999,-999.0,-999.0,48,-99.99,,---,-99.99,VWS V14.01,2013-11-30 03:33:00,
2013-11-29 19:38:00,58.8,39.2,-100.00,North,-999,-999.0,-999.0,48,-99.99,,---,-99.99,VWS V14.01,2013-11-30 03:38:00,
2013-11-29 19:43:00,58.8,39.2,-100.00,North,-999,-999.0,-999.0,48,-99.99,,---,-99.99,VWS V14.01,2013-11-30 03:43:00,
2013-11-29 19:48:00,58.5,38.9,-100.00,North,-999,-999.0,-999.0,48,-99.99,,---,-99.99,VWS V14.01,2013-11-30 03:48:00,
2013-11-29 19:53:00,58.1,38.5,-100.00,North,-999,-999.0,-999.0,48,-99.99,,---,-99.99,VWS V14.01,2013-11-30 03:53:00,
2013-11-29 19:58:00,57.9,38.4,-100.00,North,-999,-999.0,-999.0,48,-99.99,,---,-99.99,VWS V14.01,2013-11-30 03:58:00,
2013-11-29 20:03:00,57.7,38.2,-100.00,North,-999,-999.0,-999.0,48,-99.99,,---,-99.99,VWS V14.01,2013-11-30 04:03:00,
2013-11-29 20:17:00,57.0,38.1,-100.00,North,-999,-999.0,-999.0,49,-99.99,,---,-99.99,VWS V14.01,2013-11-30 04:17:00,
2013-11-29 20:22:00,56.8,37.9,-100.00,North,-999,-999.0,-999.0,49,-99.99,,---,-99.99,VWS V14.01,2013-11-30 04:22:00,
2013-11-29 20:27:00,56.8,37.9,-100.00,North,-999,-999.0,-999.0,49,-99.99,,---,-99.99,VWS V14.01,2013-11-30 04:27:00,
2013-11-29 20:32:00,56.8,37.9,-100.00,North,-999,-999.0,-999.0,49,-99.99,,---,-99.99,VWS V14.01,2013-11-30 04:32:00,
2013-11-29 20:37:00,56.5,37.6,-100.00,North,-999,-999.0,-999.0,49,-99.99,,---,-99.99,VWS V14.01,2013-11-30 04:37:00,
2013-11-29 20:42:00,56.3,37.4,-100.00,North,-999,-999.0,-999.0,49,-99.99,,---,-99.99,VWS V14.01,2013-11-30 04:42:00,
2013-11-29 20:47:00,56.3,37.4,-100.00,North,-999,-999.0,-999.0,49,-99.99,,---,-99.99,VWS V14.01,2013-11-30 04:47:00,
2013-11-29 20:52:00,56.1,37.2,-100.00,North,-999,-999.0,-999.0,49,-99.99,,---,-99.99,VWS V14.01,2013-11-30 04:52:00,
2013-11-29 20:57:00,55.8,36.9,-100.00,North,-999,-999.0,-999.0,49,-99.99,,---,-99.99,VWS V14.01,2013-11-30 04:57:00,
2013-11-29 21:01:00,55.6,36.7,-100.00,North,-999,-999.0,-999.0,49,-99.99,,---,-99.99,VWS V14.01,2013-11-30 05:01:00,
2013-11-29 21:02:00,55.6,36.7,-100.00,North,-999,-999.0,-999.0,49,-99.99,,---,-99.99,VWS V14.01,2013-11-30 05:02:00,
2013-11-29 21:03:00,55.4,36.6,-100.00,North,-999,-999.0,-999.0,49,-99.99,,---,-99.99,VWS V14.01,2013-11-30 05:03:00,
2013-11-29 21:05:00,55.4,36.6,-100.00,North,-999,-999.0,-999.0,49,-99.99,,---,-99.99,VWS V14.01,2013-11-30 05:05:00,
2013-11-29 21:10:00,55.4,36.6,-100.00,North,-999,-999.0,-999.0,49,-99.99,,---,-99.99,VWS V14.01,2013-11-30 05:10:00,
2013-11-29 21:13:00,55.4,37.1,-100.00,North,-999,-999.0,-999.0,50,-99.99,,---,-99.99,VWS V14.01,2013-11-30 05:13:00,
2013-11-29 21:19:00,55.0,36.8,-100.00,North,-999,-999.0,-999.0,50,-99.99,,---,-99.99,VWS V14.01,2013-11-30 05:19:00,
2013-11-29 21:24:00,54.7,36.4,-100.00,North,-999,-999.0,-999.0,50,-99.99,,---,-99.99,VWS V14.01,2013-11-30 05:24:00,
2013-11-29 21:30:00,54.5,36.3,-100.00,North,-999,-999.0,-999.0,50,-99.99,,---,-99.99,VWS V14.01,2013-11-30 05:30:00,
2013-11-29 21:36:00,54.1,35.9,-100.00,North,-999,-999.0,-999.0,50,-99.99,,---,-99.99,VWS V14.01,2013-11-30 05:36:00,
2013-11-29 21:41:00,54.1,35.9,-100.00,North,-999,-999.0,-999.0,50,-99.99,,---,-99.99,VWS V14.01,2013-11-30 05:41:00,
2013-11-29 21:46:00,54.0,35.8,-100.00,North,-999,-999.0,-999.0,50,-99.99,,---,-99.99,VWS V14.01,2013-11-30 05:46:00,
2013-11-29 21:52:00,54.0,35.8,-100.00,North,-999,-999.0,-999.0,50,-99.99,,---,-99.99,VWS V14.01,2013-11-30 05:52:00,
2013-11-29 21:57:00,53.8,35.6,-100.00,North,-999,-999.0,-999.0,50,-99.99,,---,-99.99,VWS V14.01,2013-11-30 05:57:00,
2013-11-29 22:02:00,53.6,35.9,-100.00,North,-999,-999.0,-999.0,51,-99.99,,---,-99.99,VWS V14.01,2013-11-30 06:02:00,
2013-11-29 22:07:00,53.4,35.8,-100.00,North,-999,-999.0,-999.0,51,-99.99,,---,-99.99,VWS V14.01,2013-11-30 06:07:00,
2013-11-29 22:12:00,53.4,35.8,-100.00,North,-999,-999.0,-999.0,51,-99.99,,---,-99.99,VWS V14.01,2013-11-30 06:12:00,
2013-11-29 22:17:00,53.4,35.8,-100.00,North,-999,-999.0,-999.0,51,-99.99,,---,-99.99,VWS V14.01,2013-11-30 06:17:00,
2013-11-29 22:22:00,53.2,35.6,-100.00,North,-999,-999.0,-999.0,51,-99.99,,---,-99.99,VWS V14.01,2013-11-30 06:22:00,
2013-11-29 22:27:00,53.2,35.6,-100.00,North,-999,-999.0,-999.0,51,-99.99,,---,-99.99,VWS V14.01,2013-11-30 06:27:00,
2013-11-29 22:32:00,53.1,35.4,-100.00,North,-999,-999.0,-999.0,51,-99.99,,---,-99.99,VWS V14.01,2013-11-30 06:32:00,
2013-11-29 22:37:00,53.1,35.9,-100.00,North,-999,-999.0,-999.0,52,-99.99,,---,-99.99,VWS V14.01,2013-11-30 06:37:00,
2013-11-29 22:42:00,52.9,35.8,-100.00,North,-999,-999.0,-999.0,52,-99.99,,---,-99.99,VWS V14.01,2013-11-30 06:42:00,
2013-11-29 22:47:00,52.9,35.8,-100.00,North,-999,-999.0,-999.0,52,-99.99,,---,-99.99,VWS V14.01,2013-11-30 06:47:00,
2013-11-29 22:52:00,52.7,35.6,-100.00,North,-999,-999.0,-999.0,52,-99.99,,---,-99.99,VWS V14.01,2013-11-30 06:52:00,
2013-11-29 22:57:00,52.7,35.6,-100.00,North,-999,-999.0,-999.0,52,-99.99,,---,-99.99,VWS V14.01,2013-11-30 06:57:00,
2013-11-29 23:02:00,52.5,35.4,-100.00,North,-999,-999.0,-999.0,52,-99.99,,---,-99.99,VWS V14.01,2013-11-30 07:02:00,
2013-11-29 23:07:00,52.5,35.4,-100.00,North,-999,-999.0,-999.0,52,-99.99,,---,-99.99,VWS V14.01,2013-11-30 07:07:00,
2013-11-29 23:12:00,52.5,35.4,-100.00,North,-999,-999.0,-999.0,52,-99.99,,---,-99.99,VWS V14.01,2013-11-30 07:12:00,
2013-11-29 23:17:00,52.3,35.2,-100.00,North,-999,-999.0,-999.0,52,-99.99,,---,-99.99,VWS V14.01,2013-11-30 07:17:00,
2013-11-29 23:22:00,52.3,35.7,-100.00,North,-999,-999.0,-999.0,53,-99.99,,---,-99.99,VWS V14.01,2013-11-30 07:22:00,
2013-11-29 23:27:00,52.2,35.1,-100.00,North,-999,-999.0,-999.0,52,-99.99,,---,-99.99,VWS V14.01,2013-11-30 07:27:00,
2013-11-29 23:32:00,52.0,34.9,-100.00,North,-999,-999.0,-999.0,52,-99.99,,---,-99.99,VWS V14.01,2013-11-30 07:32:00,
2013-11-29 23:37:00,52.0,34.9,-100.00,North,-999,-999.0,-999.0,52,-99.99,,---,-99.99,VWS V14.01,2013-11-30 07:37:00,
2013-11-29 23:42:00,51.8,34.8,-100.00,North,-999,-999.0,-999.0,52,-99.99,,---,-99.99,VWS V14.01,2013-11-30 07:42:00,
2013-11-29 23:47:00,51.6,35.1,-100.00,North,-999,-999.0,-999.0,53,-99.99,,---,-99.99,VWS V14.01,2013-11-30 07:47:00,
2013-11-29 23:52:00,51.4,34.9,-100.00,North,-999,-999.0,-999.0,53,-99.99,,---,-99.99,VWS V14.01,2013-11-30 07:52:00,
2013-11-29 23:57:00,51.4,35.4,-100.00,North,-999,-999.0,-999.0,54,-99.99,,---,-99.99,VWS V14.01,2013-11-30 07:57:00,